Weather History for KBUR - May, 2012

Change the Weather History Date:

Wednesday, May 23, 2012

  Actual Average Record
Temperature  
Mean Temperature 69 °F 66 °F  
Max Temperature 78 °F 77 °F 96 °F (1949)
Min Temperature 59 °F 56 °F 46 °F (1960)
Degree Days  
Heating Degree Days 0 1  
Month to date heating degree days 22 49  
Since 1 July heating degree days 1485 1546  
Cooling Degree Days 4 2  
Month to date cooling degree days 60 46  
Year to date cooling degree days 107 97  
Growing Degree Days 18 (Base 50)    
Moisture  
Dew Point 55 °F    
Average Humidity 67    
Maximum Humidity 90    
Minimum Humidity 43    
Precipitation  
Precipitation 0.00 in 0.01 in 0.13 in (2008)
Month to date precipitation T 0.29  
Year to date precipitation 5.48 12.38  
Since 1 July precipitation 8.77  
Sea Level Pressure  
Sea Level Pressure 29.72 in    
Wind  
Wind Speed 10 mph (SE)    
Max Wind Speed 18 mph    
Max Gust Speed 23 mph    
Visibility 9 miles    
Events      
T = Trace of Precipitation, MM = Missing Value Source: NWS Daily Summary

Daily Weather History Graph

Daily Weather History Graph

Search for Another Location

Airport or City:

Trip Planner

Search our weather history database for the weather conditions in past years. The results will help you decide how hot, cold, wet, or windy it might be!

Date:

Astronomy

May. 23, 2012 Rise Set
Actual Time 5:46 AM PDT 7:54 PM PDT
Civil Twilight 5:17 AM PDT 8:23 PM PDT
Nautical Twilight 4:43 AM PDT 8:57 PM PDT
Astronomical Twilight 4:06 AM PDT 9:35 PM PDT
Moon 7:53 AM PDT (5/23) 10:20 PM PDT (5/23)
Length of Visible Light 15h 05m
Length of Day
14h 08m
Waxing Crescent, 7% of the Moon is Illuminated
May 23
Waxing Crescent
May 28
First Quarter
Jun 4
Full
Jun 11
Last Quarter
Jun 19
New

Hourly Weather History & Observations

Time (PDT) Temp. Dew Point Humidity Pressure Visibility Wind Dir Wind Speed Gust Speed Precip Events Conditions
12:53 AM 62.6 °F 57.2 °F 82% 29.81 in 10.0 mi East 12.7 mph - N/A   Clear
1:53 AM 61.0 °F 57.9 °F 90% 29.77 in 6.0 mi ESE 10.4 mph - N/A   Clear
2:53 AM 61.0 °F 57.0 °F 87% 29.75 in 5.0 mi ESE 11.5 mph - N/A   Clear
3:53 AM 60.1 °F 57.0 °F 90% 29.74 in 6.0 mi ESE 11.5 mph - N/A   Partly Cloudy
4:53 AM 60.1 °F 55.9 °F 86% 29.75 in 7.0 mi ESE 8.1 mph - N/A   Clear
5:34 AM 60.8 °F 55.4 °F 82% 29.79 in 7.0 mi ESE 6.9 mph - N/A   Partly Cloudy
5:53 AM 60.1 °F 55.9 °F 86% 29.76 in 5.0 mi SE 5.8 mph - N/A   Partly Cloudy
6:53 AM 60.1 °F 55.0 °F 83% 29.77 in 6.0 mi ESE 4.6 mph - N/A   Haze
7:53 AM 63.0 °F 55.0 °F 75% 29.76 in 9.0 mi ESE 10.4 mph 17.3 mph N/A   Clear
8:53 AM 66.9 °F 55.0 °F 66% 29.77 in 10.0 mi East 9.2 mph - N/A   Clear
9:53 AM 70.0 °F 55.0 °F 59% 29.75 in 10.0 mi ESE 8.1 mph - N/A   Clear
10:53 AM 73.9 °F 55.0 °F 52% 29.75 in 10.0 mi ESE 13.8 mph - N/A   Clear
11:53 AM 73.9 °F 55.9 °F 53% 29.75 in 10.0 mi South 10.4 mph - N/A   Clear
12:53 PM 73.9 °F 55.0 °F 52% 29.73 in 10.0 mi South 10.4 mph - N/A   Clear
1:53 PM 73.9 °F 53.1 °F 48% 29.71 in 10.0 mi South 11.5 mph - N/A   Clear
2:53 PM 77.0 °F 54.0 °F 45% 29.69 in 10.0 mi SSE 9.2 mph - N/A   Clear
3:53 PM 75.9 °F 54.0 °F 46% 29.68 in 10.0 mi South 9.2 mph - N/A   Clear
4:53 PM 75.0 °F 55.0 °F 50% 29.65 in 10.0 mi SSE 11.5 mph - N/A   Clear
5:53 PM 72.0 °F 54.0 °F 53% 29.65 in 10.0 mi South 12.7 mph - N/A   Clear
6:53 PM 69.1 °F 48.0 °F 47% 29.66 in 10.0 mi SE 10.4 mph - N/A   Clear
7:53 PM 64.0 °F 48.9 °F 58% 29.66 in 10.0 mi SSE 9.2 mph - N/A   Clear
8:53 PM 64.9 °F 52.0 °F 63% 29.67 in 10.0 mi SE 8.1 mph - N/A   Clear
9:53 PM 64.0 °F 53.1 °F 67% 29.67 in 10.0 mi SE 11.5 mph - N/A   Clear
10:53 PM 62.1 °F 55.0 °F 78% 29.68 in 10.0 mi SE 10.4 mph - N/A   Clear
11:53 PM 61.0 °F 54.0 °F 78% 29.68 in 10.0 mi SE 13.8 mph - N/A   Clear